Location: Fort Worth, Tx
(32.7431°N, 97.3695°W)
Time: 20:25:56
(UTC-04:00)

Vanguard 1 Rocket - Pass Details

Date: 14 September 2024
Orbit: 650 x 4218 km, 34.3° (Epoch: 11 October)

Event Time Altitude Azimuth Distance (km) Brightness Sun altitude
Exits shadow 07:20:33 13° 258° (WSW) 4,925 10.4 -11.7°
Maximum altitude 07:36:44 89° 348° (NNW) 3,645 10.4 -8.4°
Drops below altitude 10° 08:03:30 10° 83° (E) 7,377 14.1 -2.8°
Sets 08:09:04 0° 84° (E) 8,268 16.3 -1.6°
